When you browse on this site, cookies collect data to enhance your experience and personalize the content and advertising you see.
Visit our Privacy Policy to learn more. By continuing to use the site, you agree to this use of cookies and data.
  • In Schweiz
  • Länderverzeichnis
  • Für 7 Tage
  • Wassertemperatur
  • Wetterkarte
  • Widgets
  • user-avatar
    Anmelden

    Stündliche Wetter Xuri

    Heute, 3 Juni, Mittwoch

    Zeit Temperatur Niederschläge Wind Luftdruck Luftfeuchtigkeit
    00:00 +26°C° 0.8 mm 1 m/S 747 mmHg 94%
    01:00 +24°C° 0.8 mm 0 m/S 747 mmHg 94%
    02:00 +23°C° 0.8 mm 0 m/S 746 mmHg 95%
    03:00 +25°C° 2 mm 1 m/S 746 mmHg 96%
    04:00 +25°C° 2 mm 1 m/S 746 mmHg 97%
    05:00 +25°C° 2 mm 1 m/S 746 mmHg 98%
    06:00 +25°C° 2.3 mm 1 m/S 746 mmHg 97%
    07:00 +25°C° 2.3 mm 1 m/S 746 mmHg 97%
    08:00 +25°C° 2.3 mm 1 m/S 746 mmHg 97%
    09:00 +26°C° 2.1 mm 1 m/S 747 mmHg 96%
    10:00 +26°C° 2.1 mm 1 m/S 747 mmHg 96%
    11:00 +26°C° 2.1 mm 2 m/S 747 mmHg 96%
    12:00 +26°C° 2 mm 1 m/S 746 mmHg 96%
    13:00 +26°C° 2 mm 1 m/S 746 mmHg 96%
    14:00 +27°C° 2 mm 1 m/S 746 mmHg 95%
    15:00 +27°C° 1.1 mm 1 m/S 746 mmHg 95%
    16:00 +27°C° 1.1 mm 1 m/S 746 mmHg 94%
    17:00 +28°C° 1.1 mm 1 m/S 746 mmHg 93%
    18:00 +27°C° 1.3 mm 1 m/S 746 mmHg 93%
    19:00 +26°C° 1.3 mm 1 m/S 746 mmHg 94%
    20:00 +26°C° 1.3 mm 1 m/S 746 mmHg 94%
    21:00 +26°C° 0.5 mm 1 m/S 747 mmHg 94%
    22:00 +26°C° 0.5 mm 1 m/S 747 mmHg 94%
    23:00 +26°C° 0.5 mm 1 m/S 748 mmHg 94%

    Morgen, 4 Juni, Donnerstag

    Zeit Temperatur Niederschläge Wind Luftdruck Luftfeuchtigkeit
    00:00 +26°C° 0.1 mm 1 m/S 747 mmHg 94%
    01:00 +25°C° 0.1 mm 1 m/S 747 mmHg 94%
    02:00 +25°C° 0.1 mm 1 m/S 746 mmHg 94%
    03:00 +25°C° 0 mm 1 m/S 746 mmHg 93%
    04:00 +23°C° 0 mm 0 m/S 746 mmHg 93%
    05:00 +23°C° 0 mm 0 m/S 746 mmHg 93%
    06:00 +24°C° 0 mm 0 m/S 747 mmHg 92%
    07:00 +25°C° 0 mm 0 m/S 747 mmHg 90%
    08:00 +26°C° 0 mm 0 m/S 747 mmHg 88%
    09:00 +28°C° 0.6 mm 1 m/S 747 mmHg 87%
    10:00 +29°C° 0.6 mm 1 m/S 747 mmHg 87%
    11:00 +29°C° 0.6 mm 1 m/S 747 mmHg 86%
    12:00 +30°C° 1 mm 1 m/S 747 mmHg 83%
    13:00 +30°C° 1 mm 1 m/S 746 mmHg 81%
    14:00 +31°C° 1 mm 1 m/S 746 mmHg 79%
    15:00 +31°C° 1.5 mm 1 m/S 745 mmHg 81%
    16:00 +31°C° 1.5 mm 1 m/S 745 mmHg 83%
    17:00 +30°C° 1.5 mm 1 m/S 745 mmHg 86%
    18:00 +29°C° 1.5 mm 1 m/S 745 mmHg 87%
    19:00 +28°C° 1.5 mm 1 m/S 746 mmHg 88%
    20:00 +27°C° 1.5 mm 1 m/S 746 mmHg 90%
    21:00 +27°C° 1 mm 1 m/S 746 mmHg 92%
    22:00 +24°C° 1 mm 0 m/S 747 mmHg 93%
    23:00 +24°C° 1 mm 0 m/S 747 mmHg 95%

    übermorgen, 5 Juni, Freitag

    Zeit Temperatur Niederschläge Wind Luftdruck Luftfeuchtigkeit
    00:00 +24°C° 0.6 mm 0 m/S 746 mmHg 95%
    01:00 +24°C° 0.6 mm 0 m/S 746 mmHg 96%
    02:00 +24°C° 0.6 mm 0 m/S 746 mmHg 96%
    03:00 +24°C° 0.5 mm 0 m/S 746 mmHg 96%
    04:00 +24°C° 0.5 mm 0 m/S 746 mmHg 96%
    05:00 +24°C° 0.5 mm 0 m/S 746 mmHg 96%
    06:00 +24°C° 0.3 mm 0 m/S 746 mmHg 95%
    07:00 +25°C° 0.3 mm 0 m/S 746 mmHg 94%
    08:00 +27°C° 0.3 mm 1 m/S 747 mmHg 93%
    09:00 +27°C° 1.5 mm 1 m/S 747 mmHg 93%
    10:00 +27°C° 1.5 mm 2 m/S 747 mmHg 93%
    11:00 +27°C° 1.5 mm 2 m/S 747 mmHg 94%
    12:00 +27°C° 1.4 mm 2 m/S 747 mmHg 93%
    13:00 +27°C° 1.4 mm 1 m/S 746 mmHg 92%
    14:00 +28°C° 1.4 mm 1 m/S 746 mmHg 91%
    15:00 +27°C° 1.8 mm 1 m/S 746 mmHg 93%
    16:00 +27°C° 1.8 mm 1 m/S 746 mmHg 95%
    17:00 +26°C° 1.8 mm 1 m/S 745 mmHg 97%
    18:00 +26°C° 2.1 mm 1 m/S 746 mmHg 97%
    19:00 +23°C° 2.1 mm 0 m/S 746 mmHg 97%
    20:00 +23°C° 2.1 mm 0 m/S 747 mmHg 98%
    21:00 +23°C° 1.3 mm 0 m/S 747 mmHg 98%
    22:00 +23°C° 1.3 mm 0 m/S 747 mmHg 98%
    23:00 +23°C° 1.3 mm 0 m/S 747 mmHg 98%

    6 Juni, Samstag

    Zeit Temperatur Niederschläge Wind Luftdruck Luftfeuchtigkeit
    00:00 +23°C° 0.9 mm 0 m/S 747 mmHg 98%
    01:00 +23°C° 0.9 mm 0 m/S 746 mmHg 98%
    02:00 +23°C° 0.9 mm 0 m/S 746 mmHg 98%
    03:00 +23°C° 0.4 mm 0 m/S 746 mmHg 98%
    04:00 +23°C° 0.4 mm 0 m/S 746 mmHg 97%
    05:00 +23°C° 0.4 mm 0 m/S 746 mmHg 97%
    06:00 +25°C° 0 mm 1 m/S 746 mmHg 96%
    07:00 +26°C° 0 mm 1 m/S 747 mmHg 95%
    08:00 +26°C° 0 mm 1 m/S 747 mmHg 94%
    09:00 +27°C° 0.6 mm 1 m/S 747 mmHg 92%
    10:00 +28°C° 0.6 mm 2 m/S 747 mmHg 91%
    11:00 +29°C° 0.6 mm 2 m/S 747 mmHg 89%
    12:00 +29°C° 0.5 mm 2 m/S 747 mmHg 84%
    13:00 +30°C° 0.5 mm 3 m/S 746 mmHg 80%
    14:00 +31°C° 0.5 mm 3 m/S 746 mmHg 75%
    15:00 +30°C° 0.2 mm 4 m/S 746 mmHg 77%
    16:00 +30°C° 0.2 mm 4 m/S 746 mmHg 79%
    17:00 +30°C° 0.2 mm 4 m/S 745 mmHg 80%
    18:00 +28°C° 0.7 mm 3 m/S 746 mmHg 82%
    19:00 +27°C° 0.7 mm 3 m/S 746 mmHg 85%
    20:00 +26°C° 0.7 mm 2 m/S 746 mmHg 87%
    21:00 +25°C° 0.7 mm 2 m/S 747 mmHg 89%
    22:00 +25°C° 0.7 mm 2 m/S 747 mmHg 90%
    23:00 +25°C° 0.7 mm 2 m/S 748 mmHg 92%

    7 Juni, Sonntag

    Zeit Temperatur Niederschläge Wind Luftdruck Luftfeuchtigkeit
    00:00 +24°C° 0.8 mm 2 m/S 747 mmHg 93%
    01:00 +24°C° 0.8 mm 2 m/S 747 mmHg 94%
    02:00 +24°C° 0.8 mm 2 m/S 747 mmHg 95%
    03:00 +24°C° 0.7 mm 2 m/S 747 mmHg 95%
    04:00 +23°C° 0.7 mm 2 m/S 747 mmHg 96%
    05:00 +23°C° 0.7 mm 1 m/S 747 mmHg 96%
    06:00 +23°C° 0.9 mm 1 m/S 747 mmHg 96%
    07:00 +23°C° 0.9 mm 1 m/S 748 mmHg 96%
    08:00 +23°C° 0.9 mm 2 m/S 748 mmHg 96%
    09:00 +24°C° 0.6 mm 2 m/S 748 mmHg 96%
    10:00 +24°C° 0.6 mm 2 m/S 748 mmHg 96%
    11:00 +24°C° 0.6 mm 2 m/S 748 mmHg 96%
    12:00 +24°C° 0.7 mm 2 m/S 748 mmHg 96%
    13:00 +25°C° 0.7 mm 2 m/S 747 mmHg 96%
    14:00 +25°C° 0.7 mm 3 m/S 747 mmHg 96%
    15:00 +25°C° 3.4 mm 2 m/S 747 mmHg 96%
    16:00 +24°C° 3.4 mm 2 m/S 746 mmHg 97%
    17:00 +24°C° 3.4 mm 2 m/S 746 mmHg 98%
    18:00 +24°C° 1.7 mm 2 m/S 746 mmHg 98%
    19:00 +24°C° 1.7 mm 2 m/S 747 mmHg 98%
    20:00 +24°C° 1.7 mm 2 m/S 747 mmHg 98%
    21:00 +24°C° 0.4 mm 2 m/S 747 mmHg 98%
    22:00 +24°C° 0.4 mm 2 m/S 747 mmHg 98%
    23:00 +24°C° 0.4 mm 2 m/S 747 mmHg 98%

    8 Juni, Montag

    Zeit Temperatur Niederschläge Wind Luftdruck Luftfeuchtigkeit
    00:00 +24°C° 0.4 mm 2 m/S 747 mmHg 98%
    01:00 +24°C° 0.4 mm 2 m/S 747 mmHg 97%
    02:00 +24°C° 0.4 mm 2 m/S 746 mmHg 97%
    03:00 +24°C° 0.6 mm 2 m/S 746 mmHg 97%
    04:00 +24°C° 0.6 mm 2 m/S 746 mmHg 98%
    05:00 +24°C° 0.6 mm 2 m/S 747 mmHg 98%
    06:00 +24°C° 2.7 mm 2 m/S 747 mmHg 98%
    07:00 +24°C° 2.7 mm 1 m/S 747 mmHg 98%
    08:00 +24°C° 2.7 mm 1 m/S 747 mmHg 98%
    09:00 +24°C° 2.1 mm 1 m/S 748 mmHg 98%
    10:00 +24°C° 2.1 mm 1 m/S 748 mmHg 98%
    11:00 +24°C° 2.1 mm 1 m/S 748 mmHg 98%
    12:00 +24°C° 0.5 mm 1 m/S 748 mmHg 98%
    13:00 +24°C° 0.5 mm 1 m/S 747 mmHg 98%
    14:00 +25°C° 0.5 mm 1 m/S 747 mmHg 97%
    15:00 +25°C° 0.1 mm 1 m/S 747 mmHg 96%
    16:00 +25°C° 0.1 mm 1 m/S 747 mmHg 95%
    17:00 +26°C° 0.1 mm 1 m/S 746 mmHg 94%
    18:00 +25°C° 0 mm 1 m/S 747 mmHg 95%
    19:00 +25°C° 0 mm 1 m/S 747 mmHg 95%
    20:00 +25°C° 0 mm 1 m/S 747 mmHg 96%
    21:00 +25°C° 0 mm 1 m/S 747 mmHg 96%
    22:00 +25°C° 0 mm 1 m/S 748 mmHg 96%
    23:00 +25°C° 0 mm 1 m/S 748 mmHg 96%
    Mehr zeigen